| time (UTC) | temp F | wind direction | speed knots | gust knots | rain 1hr in | rain 24hr in | rain mn in | humidity % | barometer mb |
| 20260901054544 | 79 | 135 | 0.0 | 0.0 | 0.00 | 0.00 | 0.00 | 91 | 1015.7 |
| 20260901054025 | 79 | 135 | 0.0 | 0.0 | 0.00 | 0.00 | 0.00 | 91 | 1015.8 |
| 20260901053527 | 79 | 135 | 0.0 | 0.0 | 0.00 | 0.00 | 0.00 | 91 | 1015.8 |
| 20260901053032 | 79 | 135 | 0.0 | 0.0 | 0.00 | 0.00 | 0.00 | 90 | 1015.8 |
| 20260901052534 | 79 | 135 | 0.0 | 0.0 | 0.00 | 0.00 | 0.00 | 90 | 1015.9 |
| 20260901052036 | 79 | 135 | 0.0 | 0.0 | 0.00 | 0.00 | 0.00 | 90 | 1015.9 |
| 20260901051539 | 79 | 135 | 0.0 | 0.0 | 0.00 | 0.00 | 0.00 | 89 | 1016.0 |
| 20260901051043 | 80 | 135 | 0.0 | 0.0 | 0.00 | 0.00 | 0.00 | 89 | 1016.0 |
| 20260901050528 | 80 | 135 | 0.0 | 0.0 | 0.00 | 0.00 | 0.00 | 89 | 1016.0 |
| 20260901050032 | 80 | 135 | 0.0 | 0.0 | 0.00 | 0.00 | 0.00 | 89 | 1016.0 |
| 20260901045554 | 80 | 135 | 0.0 | 0.0 | 0.00 | 0.00 | 0.00 | 88 | 1016.0 |
| 20260901045037 | 80 | 135 | 0.0 | 0.0 | 0.00 | 0.00 | 0.00 | 88 | 1016.0 |
| 20260901044540 | 81 | 135 | 0.0 | 0.0 | 0.00 | 0.00 | 0.00 | 88 | 1016.1 |
| 20260901044041 | 81 | 135 | 0.0 | 0.0 | 0.00 | 0.00 | 0.00 | 87 | 1016.0 |
| 20260901043543 | 81 | 135 | 0.0 | 0.0 | 0.00 | 0.00 | 0.00 | 87 | 1016.0 |
| 20260901043026 | 81 | 135 | 0.0 | 0.0 | 0.00 | 0.00 | 0.00 | 88 | 1016.0 |
| 20260901042528 | 81 | 135 | 0.0 | 0.0 | 0.00 | 0.00 | 0.00 | 87 | 1015.9 |
| 20260901042031 | 81 | 135 | 0.0 | 0.0 | 0.00 | 0.00 | 0.00 | 87 | 1015.9 |
| 20260901041554 | 82 | 135 | 0.0 | 0.0 | 0.00 | 0.00 | 0.00 | 87 | 1016.0 |
| 20260901041055 | 82 | 135 | 0.0 | 0.0 | 0.00 | 0.00 | 0.00 | 87 | 1016.1 |
| 20260901040536 | 82 | 135 | 0.0 | 0.0 | 0.00 | 0.00 | 0.00 | 87 | 1016.0 |
| 20260901040041 | 81 | 135 | 0.0 | 3.5 | 0.00 | 0.00 | 0.00 | 87 | 1016.0 |
| 20260901035526 | 81 | 135 | 0.9 | 3.5 | 0.00 | 0.00 | 0.00 | 88 | 1016.1 |
| 20260901035049 | 81 | 139 | 1.7 | 3.5 | 0.00 | 0.00 | 0.00 | 89 | 1016.0 |
| 20260901034553 | 80 | 119 | 0.9 | 1.7 | 0.00 | 0.00 | 0.00 | 89 | 1016.0 |
| 20260901034034 | 80 | 103 | 0.0 | 1.7 | 0.00 | 0.00 | 0.00 | 89 | 1016.0 |
| 20260901033537 | 80 | 103 | 0.0 | 1.7 | 0.00 | 0.00 | 0.00 | 89 | 1016.0 |
| 20260901033041 | 80 | 103 | 0.0 | 0.0 | 0.00 | 0.00 | 0.00 | 89 | 1016.0 |
| 20260901032542 | 80 | 103 | 0.0 | 0.0 | 0.00 | 0.00 | 0.00 | 89 | 1015.9 |
| 20260901032025 | 80 | 103 | 0.0 | 0.0 | 0.00 | 0.00 | 0.00 | 89 | 1015.9 |
| 20260901031530 | 80 | 103 | 0.0 | 0.0 | 0.00 | 0.00 | 0.00 | 89 | 1015.9 |
| 20260901031031 | 80 | 103 | 0.0 | 0.0 | 0.00 | 0.00 | 0.00 | 88 | 1015.9 |
| 20260901030534 | 80 | 103 | 0.0 | 0.0 | 0.00 | 0.00 | 0.00 | 88 | 1015.9 |
| 20260901030037 | 80 | 103 | 0.0 | 0.0 | 0.00 | 0.00 | 0.00 | 88 | 1015.8 |
| 20260901025538 | 81 | 103 | 0.0 | 0.9 | 0.00 | 0.00 | 0.00 | 88 | 1015.9 |
| 20260901025102 | 81 | 103 | 0.0 | 0.9 | 0.00 | 0.00 | 0.00 | 87 | 1016.0 |
| 20260901024529 | 81 | 103 | 0.0 | 0.0 | 0.00 | 0.00 | 0.00 | 87 | 1015.9 |
| 20260901024051 | 81 | 103 | 0.0 | 0.0 | 0.00 | 0.00 | 0.00 | 87 | 1016.0 |
| 20260901023551 | 81 | 103 | 0.0 | 0.0 | 0.00 | 0.00 | 0.00 | 87 | 1016.0 |
| 20260901023034 | 81 | 103 | 0.0 | 0.0 | 0.00 | 0.00 | 0.00 | 86 | 1016.0 |
| 20260901022535 | 81 | 103 | 0.0 | 0.0 | 0.00 | 0.00 | 0.00 | 86 | 1016.0 |
| 20260901022038 | 81 | 103 | 0.0 | 0.0 | 0.00 | 0.00 | 0.00 | 85 | 1016.0 |
| 20260901021542 | 81 | 103 | 0.0 | 0.0 | 0.00 | 0.00 | 0.00 | 85 | 1016.0 |
| 20260901021043 | 81 | 103 | 0.0 | 0.0 | 0.00 | 0.00 | 0.00 | 85 | 1015.9 |
| 20260901020525 | 82 | 103 | 0.0 | 0.0 | 0.00 | 0.00 | 0.00 | 85 | 1015.9 |
| 20260901020029 | 82 | 103 | 0.0 | 0.0 | 0.00 | 0.00 | 0.00 | 84 | 1015.8 |
| 20260901015552 | 82 | 103 | 0.0 | 0.0 | 0.00 | 0.00 | 0.00 | 84 | 1015.7 |
| 20260901015033 | 82 | 103 | 0.0 | 0.0 | 0.00 | 0.00 | 0.00 | 84 | 1015.6 |
| 20260901014557 | 82 | 103 | 0.0 | 0.9 | 0.00 | 0.00 | 0.00 | 83 | 1015.5 |
| 20260901014037 | 82 | 103 | 0.0 | 0.9 | 0.00 | 0.00 | 0.00 | 83 | 1015.5 |
| 20260901013539 | 82 | 103 | 0.0 | 0.0 | 0.00 | 0.00 | 0.00 | 83 | 1015.3 |
| 20260901013027 | 82 | 103 | 0.0 | 0.0 | 0.00 | 0.00 | 0.00 | 83 | 1015.2 |
| 20260901012529 | 82 | 103 | 0.0 | 1.7 | 0.00 | 0.00 | 0.00 | 83 | 1015.2 |
| 20260901012051 | 82 | 103 | 0.0 | 1.7 | 0.00 | 0.00 | 0.00 | 83 | 1015.2 |
| 20260901011555 | 82 | 103 | 0.0 | 0.0 | 0.00 | 0.00 | 0.00 | 83 | 1015.2 |
| 20260901011035 | 83 | 103 | 0.0 | 0.0 | 0.00 | 0.00 | 0.00 | 82 | 1015.1 |
| 20260901010538 | 83 | 103 | 0.0 | 0.0 | 0.00 | 0.00 | 0.00 | 81 | 1014.9 |
| 20260901010042 | 83 | 103 | 0.0 | 0.0 | 0.00 | 0.00 | 0.00 | 80 | 1014.9 |
| 20260901005603 | 83 | 103 | 0.0 | 0.0 | 0.00 | 0.00 | 0.00 | 79 | 1014.8 |
| 20260901005024 | 83 | 103 | 0.0 | 0.0 | 0.00 | 0.00 | 0.00 | 79 | 1014.8 |
| 20260901004528 | 84 | 103 | 0.0 | 0.0 | 0.00 | 0.00 | 0.00 | 79 | 1014.8 |
| 20260901004050 | 84 | 103 | 0.0 | 0.0 | 0.00 | 0.00 | 0.00 | 78 | 1014.8 |
| 20260901003532 | 84 | 103 | 0.0 | 0.0 | 0.00 | 0.00 | 0.00 | 78 | 1014.8 |
| 20260901003035 | 84 | 103 | 0.0 | 0.0 | 0.00 | 0.00 | 0.00 | 77 | 1014.8 |
| 20260901002556 | 85 | 103 | 0.0 | 0.0 | 0.00 | 0.00 | 0.00 | 77 | 1014.6 |
| 20260901002037 | 85 | 103 | 0.0 | 0.0 | 0.00 | 0.00 | 0.00 | 77 | 1014.6 |
| 20260901001540 | 85 | 103 | 0.0 | 0.0 | 0.00 | 0.00 | 0.00 | 76 | 1014.7 |
| 20260901001027 | 86 | 103 | 0.0 | 0.0 | 0.00 | 0.00 | 0.00 | 76 | 1014.6 |
| 20260901000528 | 86 | 103 | 0.0 | 0.0 | 0.00 | 0.00 | 0.00 | 75 | 1014.7 |
| 20260901000033 | 86 | 103 | 0.0 | 0.0 | 0.00 | 0.00 | 0.00 | 74 | 1014.6 |
| 20260831235535 | 87 | 103 | 0.0 | 0.0 | 0.00 | 0.00 | 0.00 | 74 | 1014.6 |
| 20260831235037 | 87 | 103 | 0.0 | 0.0 | 0.00 | 0.00 | 0.00 | 73 | 1014.6 |
| 20260831234542 | 87 | 103 | 0.0 | 0.0 | 0.00 | 0.00 | 0.00 | 73 | 1014.5 |
| 20260831234024 | 87 | 103 | 0.0 | 0.0 | 0.00 | 0.00 | 0.00 | 72 | 1014.4 |
| 20260831233546 | 88 | 103 | 0.0 | 0.0 | 0.00 | 0.00 | 0.00 | 71 | 1014.4 |
| 20260831233029 | 88 | 103 | 0.0 | 0.0 | 0.00 | 0.00 | 0.00 | 71 | 1014.4 |
| 20260831232532 | 88 | 103 | 0.0 | 0.0 | 0.00 | 0.00 | 0.00 | 71 | 1014.4 |
| 20260831232034 | 89 | 103 | 0.0 | 0.0 | 0.00 | 0.00 | 0.00 | 70 | 1014.3 |
| 20260831231538 | 89 | 103 | 0.0 | 0.0 | 0.00 | 0.00 | 0.00 | 70 | 1014.3 |
| 20260831231024 | 89 | 103 | 0.0 | 0.0 | 0.00 | 0.00 | 0.00 | 68 | 1014.3 |
| 20260831230527 | 90 | 103 | 0.0 | 0.0 | 0.00 | 0.00 | 0.00 | 68 | 1014.3 |
| 20260831230031 | 90 | 103 | 0.0 | 0.0 | 0.00 | 0.00 | 0.00 | 66 | 1014.4 |
| 20260831225533 | 90 | 103 | 0.0 | 0.0 | 0.00 | 0.00 | 0.00 | 66 | 1014.5 |
| 20260831225055 | 91 | 103 | 0.0 | 0.0 | 0.00 | 0.00 | 0.00 | 65 | 1014.5 |
| 20260831224539 | 91 | 103 | 0.0 | 0.0 | 0.00 | 0.00 | 0.00 | 66 | 1014.5 |
| 20260831224041 | 91 | 103 | 0.0 | 0.0 | 0.00 | 0.00 | 0.00 | 63 | 1014.5 |
| 20260831223541 | 92 | 11 | 0.0 | 0.9 | 0.00 | 0.00 | 0.00 | 64 | 1014.5 |
| 20260831223024 | 92 | 10 | 0.0 | 0.9 | 0.00 | 0.00 | 0.00 | 64 | 1014.6 |
| 20260831222527 | 93 | 9 | 0.0 | 1.7 | 0.00 | 0.00 | 0.00 | 63 | 1014.6 |
| 20260831222029 | 93 | 5 | 0.0 | 1.7 | 0.00 | 0.00 | 0.00 | 61 | 1014.6 |
| 20260831221533 | 93 | 51 | 0.0 | 1.7 | 0.00 | 0.00 | 0.00 | 62 | 1014.6 |
| 20260831221035 | 93 | 84 | 0.0 | 5.2 | 0.00 | 0.00 | 0.00 | 61 | 1014.7 |
| 20260831220541 | 93 | 72 | 0.9 | 5.2 | 0.00 | 0.00 | 0.00 | 62 | 1014.6 |
| 20260831220045 | 94 | 110 | 0.0 | 0.9 | 0.00 | 0.00 | 0.00 | 61 | 1014.6 |
| 20260831215605 | 94 | 139 | 0.0 | 0.9 | 0.00 | 0.00 | 0.00 | 60 | 1014.6 |
| 20260831215025 | 94 | 92 | 0.0 | 0.0 | 0.00 | 0.00 | 0.00 | 60 | 1014.7 |
| 20260831214528 | 94 | 80 | 0.0 | 0.0 | 0.00 | 0.00 | 0.00 | 60 | 1014.7 |
| 20260831214030 | 94 | 74 | 0.0 | 0.9 | 0.00 | 0.00 | 0.00 | 61 | 1014.7 |
| 20260831213532 | 94 | 74 | 0.0 | 0.9 | 0.00 | 0.00 | 0.00 | 59 | 1014.8 |
| 20260831213035 | 94 | 18 | 0.0 | 3.5 | 0.00 | 0.00 | 0.00 | 60 | 1014.8 |
| 20260831212558 | 94 | 18 | 0.0 | 3.5 | 0.00 | 0.00 | 0.00 | 60 | 1014.8 |
| 20260831212040 | 94 | 13 | 0.0 | 0.9 | 0.00 | 0.00 | 0.00 | 60 | 1014.9 |
| 20260831211543 | 94 | 13 | 0.0 | 0.9 | 0.00 | 0.00 | 0.00 | 62 | 1014.8 |
| 20260831211042 | 94 | 307 | 0.0 | 1.7 | 0.00 | 0.00 | 0.00 | 60 | 1014.8 |
| 20260831210525 | 94 | 299 | 0.0 | 1.7 | 0.00 | 0.00 | 0.00 | 60 | 1014.8 |
| 20260831210049 | 93 | 19 | 0.0 | 3.5 | 0.00 | 0.00 | 0.00 | 62 | 1014.9 |
| 20260831205529 | 93 | 15 | 0.0 | 3.5 | 0.00 | 0.00 | 0.00 | 64 | 1014.9 |
| 20260831205051 | 92 | 360 | 0.0 | 3.5 | 0.00 | 0.00 | 0.00 | 63 | 1014.8 |
| 20260831204538 | 92 | 355 | 0.0 | 0.9 | 0.00 | 0.00 | 0.00 | 63 | 1014.9 |
| 20260831204039 | 92 | 61 | 0.0 | 1.7 | 0.00 | 0.00 | 0.00 | 63 | 1015.0 |
| 20260831203601 | 93 | 70 | 0.0 | 7.0 | 0.00 | 0.00 | 0.00 | 61 | 1015.0 |
| 20260831203025 | 93 | 44 | 0.9 | 7.0 | 0.00 | 0.00 | 0.00 | 61 | 1015.0 |
| 20260831202525 | 93 | 286 | 0.0 | 0.0 | 0.00 | 0.00 | 0.00 | 60 | 1015.0 |
| 20260831202028 | 93 | 90 | 0.0 | 1.7 | 0.00 | 0.00 | 0.00 | 61 | 1015.1 |
| 20260831201532 | 93 | 83 | 0.0 | 1.7 | 0.00 | 0.00 | 0.00 | 62 | 1015.1 |
| 20260831201032 | 93 | 334 | 0.0 | 1.7 | 0.00 | 0.00 | 0.00 | 64 | 1015.1 |
| 20260831200554 | 92 | 313 | 0.0 | 0.0 | 0.00 | 0.00 | 0.00 | 65 | 1015.2 |
| 20260831200058 | 92 | 264 | 0.0 | 0.0 | 0.00 | 0.00 | 0.00 | 63 | 1015.2 |
| 20260831195538 | 93 | 332 | 0.0 | 3.5 | 0.00 | 0.00 | 0.00 | 63 | 1015.2 |
| 20260831195040 | 93 | 332 | 0.9 | 3.5 | 0.00 | 0.00 | 0.00 | 65 | 1015.2 |
| 20260831194544 | 92 | 332 | 0.0 | 3.5 | 0.00 | 0.00 | 0.00 | 67 | 1015.2 |
| 20260831194025 | 92 | 332 | 0.0 | 1.7 | 0.00 | 0.00 | 0.00 | 66 | 1015.3 |
| 20260831193547 | 92 | 332 | 0.0 | 0.0 | 0.00 | 0.00 | 0.00 | 65 | 1015.4 |
| 20260831193034 | 93 | 332 | 0.0 | 0.0 | 0.00 | 0.00 | 0.00 | 63 | 1015.4 |
| 20260831192536 | 93 | 332 | 0.0 | 0.9 | 0.00 | 0.00 | 0.00 | 62 | 1015.4 |
| 20260831192041 | 93 | 332 | 0.0 | 0.9 | 0.00 | 0.00 | 0.00 | 61 | 1015.4 |
| 20260831191605 | 93 | 296 | 0.0 | 5.2 | 0.00 | 0.00 | 0.00 | 62 | 1015.4 |
| 20260831191026 | 92 | 42 | 0.0 | 5.2 | 0.00 | 0.00 | 0.00 | 65 | 1015.5 |
| 20260831190548 | 92 | 344 | 0.0 | 0.0 | 0.00 | 0.00 | 0.00 | 67 | 1015.6 |
| 20260831190052 | 92 | 61 | 0.0 | 0.0 | 0.00 | 0.00 | 0.00 | 66 | 1015.6 |
| 20260831185531 | 92 | 75 | 0.0 | 0.0 | 0.00 | 0.00 | 0.00 | 65 | 1015.6 |
| 20260831185054 | 93 | 75 | 0.0 | 0.0 | 0.00 | 0.00 | 0.00 | 64 | 1015.6 |
| 20260831184537 | 92 | 125 | 0.0 | 1.7 | 0.00 | 0.00 | 0.00 | 66 | 1015.6 |
| 20260831184038 | 92 | 80 | 0.0 | 0.9 | 0.00 | 0.00 | 0.00 | 68 | 1015.7 |
| 20260831183541 | 91 | 346 | 0.0 | 0.0 | 0.00 | 0.00 | 0.00 | 67 | 1015.8 |
| 20260831183024 | 91 | 5 | 0.0 | 3.5 | 0.00 | 0.00 | 0.00 | 69 | 1015.9 |
| 20260831182547 | 91 | 77 | 0.0 | 3.5 | 0.00 | 0.00 | 0.00 | 67 | 1016.0 |
| 20260831182028 | 91 | 79 | 0.0 | 4.3 | 0.00 | 0.00 | 0.00 | 66 | 1016.1 |
| 20260831181533 | 92 | 31 | 0.9 | 6.1 | 0.00 | 0.00 | 0.00 | 65 | 1016.2 |
| 20260831181038 | 92 | 60 | 1.7 | 4.3 | 0.00 | 0.00 | 0.00 | 66 | 1016.2 |
| 20260831180541 | 92 | 102 | 0.0 | 1.7 | 0.00 | 0.00 | 0.00 | 66 | 1016.3 |
| 20260831180026 | 92 | 99 | 0.0 | 7.0 | 0.00 | 0.00 | 0.00 | 64 | 1016.4 |
| 20260831175527 | 92 | 96 | 1.7 | 7.0 | 0.00 | 0.00 | 0.00 | 66 | 1016.4 |
| 20260831175029 | 92 | 84 | 0.9 | 3.5 | 0.00 | 0.00 | 0.00 | 65 | 1016.4 |
| 20260831174532 | 92 | 283 | 0.0 | 0.9 | 0.00 | 0.00 | 0.00 | 67 | 1016.4 |
| 20260831174032 | 93 | 350 | 0.0 | 1.7 | 0.00 | 0.00 | 0.00 | 64 | 1016.5 |
| 20260831173536 | 93 | 78 | 0.0 | 0.0 | 0.00 | 0.00 | 0.00 | 64 | 1016.6 |
| 20260831173059 | 93 | 335 | 0.0 | 0.9 | 0.00 | 0.00 | 0.00 | 66 | 1016.6 |
| 20260831172540 | 92 | 335 | 0.0 | 1.7 | 0.00 | 0.00 | 0.00 | 67 | 1016.7 |
| 20260831172024 | 92 | 61 | 0.9 | 2.6 | 0.00 | 0.00 | 0.00 | 66 | 1016.9 |
| 20260831171528 | 91 | 337 | 0.0 | 3.5 | 0.00 | 0.00 | 0.00 | 66 | 1017.0 |
| 20260831171032 | 91 | 337 | 0.0 | 4.3 | 0.00 | 0.00 | 0.00 | 68 | 1017.0 |
| 20260831170536 | 91 | 33 | 2.6 | 4.3 | 0.00 | 0.00 | 0.00 | 66 | 1017.0 |
| 20260831170040 | 90 | 336 | 0.9 | 3.5 | 0.00 | 0.00 | 0.00 | 69 | 1017.2 |
| 20260831165542 | 91 | 259 | 0.9 | 1.7 | 0.00 | 0.00 | 0.00 | 68 | 1017.2 |
| 20260831165043 | 91 | 169 | 0.0 | 4.3 | 0.00 | 0.00 | 0.00 | 69 | 1017.1 |
| 20260831164527 | 90 | 88 | 1.7 | 5.2 | 0.00 | 0.00 | 0.00 | 69 | 1017.2 |
| 20260831164027 | 90 | 73 | 0.9 | 5.2 | 0.00 | 0.00 | 0.00 | 70 | 1017.2 |
| 20260831163531 | 90 | 180 | 0.9 | 5.2 | 0.00 | 0.00 | 0.00 | 72 | 1017.2 |
| 20260831163035 | 89 | 39 | 0.0 | 5.2 | 0.00 | 0.00 | 0.00 | 71 | 1017.2 |
| 20260831162536 | 89 | 58 | 0.0 | 5.2 | 0.00 | 0.00 | 0.00 | 73 | 1017.3 |
| 20260831162039 | 89 | 39 | 0.0 | 5.2 | 0.00 | 0.00 | 0.00 | 72 | 1017.3 |
| 20260831161526 | 89 | 39 | 0.9 | 5.2 | 0.00 | 0.00 | 0.00 | 72 | 1017.3 |
| 20260831161028 | 89 | 82 | 0.9 | 5.2 | 0.00 | 0.00 | 0.00 | 70 | 1017.4 |
| 20260831160530 | 88 | 51 | 0.9 | 4.3 | 0.00 | 0.00 | 0.00 | 73 | 1017.5 |
| 20260831160034 | 88 | 91 | 1.7 | 4.3 | 0.00 | 0.00 | 0.00 | 73 | 1017.6 |
| 20260831155535 | 88 | 69 | 0.9 | 3.5 | 0.00 | 0.00 | 0.00 | 75 | 1017.6 |
| 20260831155038 | 88 | 24 | 0.9 | 1.7 | 0.00 | 0.00 | 0.00 | 76 | 1017.5 |
| 20260831154541 | 87 | 92 | 0.0 | 5.2 | 0.00 | 0.00 | 0.00 | 76 | 1017.5 |
| 20260831154042 | 87 | 84 | 3.5 | 5.2 | 0.00 | 0.00 | 0.00 | 78 | 1017.5 |
| 20260831153525 | 87 | 75 | 0.9 | 6.1 | 0.00 | 0.00 | 0.00 | 79 | 1017.6 |
| 20260831153030 | 86 | 65 | 0.9 | 6.1 | 0.00 | 0.00 | 0.00 | 80 | 1017.6 |
| 20260831152531 | 85 | 105 | 0.9 | 4.3 | 0.00 | 0.00 | 0.00 | 82 | 1017.6 |
| 20260831152032 | 85 | 118 | 0.9 | 3.5 | 0.00 | 0.00 | 0.00 | 83 | 1017.7 |
| 20260831151557 | 84 | 355 | 0.0 | 0.9 | 0.00 | 0.00 | 0.00 | 83 | 1017.7 |
| 20260831151036 | 84 | 127 | 0.0 | 1.7 | 0.00 | 0.00 | 0.00 | 84 | 1017.7 |
| 20260831150559 | 83 | 43 | 0.0 | 1.7 | 0.00 | 0.00 | 0.00 | 85 | 1017.7 |
| 20260831150044 | 83 | 61 | 0.0 | 3.5 | 0.00 | 0.00 | 0.00 | 86 | 1017.6 |
| 20260831145526 | 83 | 53 | 0.9 | 3.5 | 0.00 | 0.00 | 0.00 | 87 | 1017.6 |
| 20260831145048 | 83 | 90 | 0.0 | 0.0 | 0.00 | 0.00 | 0.00 | 88 | 1017.5 |
| 20260831144531 | 82 | 89 | 0.0 | 0.0 | 0.00 | 0.00 | 0.00 | 88 | 1017.5 |
| 20260831144052 | 82 | 324 | 0.0 | 3.5 | 0.00 | 0.00 | 0.00 | 88 | 1017.5 |
| 20260831143533 | 82 | 284 | 0.0 | 6.1 | 0.00 | 0.00 | 0.00 | 88 | 1017.5 |
| 20260831143037 | 81 | 45 | 1.7 | 6.1 | 0.00 | 0.00 | 0.00 | 89 | 1017.5 |
| 20260831142538 | 81 | 73 | 1.7 | 4.3 | 0.00 | 0.00 | 0.00 | 90 | 1017.5 |
| 20260831142041 | 81 | 65 | 0.0 | 1.7 | 0.00 | 0.00 | 0.00 | 90 | 1017.6 |
| 20260831141525 | 80 | 65 | 0.9 | 3.5 | 0.00 | 0.00 | 0.00 | 90 | 1017.6 |
| 20260831141027 | 80 | 51 | 0.0 | 1.7 | 0.00 | 0.00 | 0.00 | 90 | 1017.6 |
| 20260831140528 | 80 | 51 | 0.0 | 3.5 | 0.00 | 0.00 | 0.00 | 90 | 1017.6 |
| 20260831140032 | 80 | 51 | 0.0 | 4.3 | 0.00 | 0.00 | 0.00 | 91 | 1017.6 |
| 20260831135538 | 80 | 64 | 1.7 | 4.3 | 0.00 | 0.00 | 0.00 | 92 | 1017.5 |
| 20260831135039 | 79 | 102 | 0.0 | 0.9 | 0.00 | 0.00 | 0.00 | 92 | 1017.5 |
| 20260831134544 | 79 | 109 | 0.0 | 1.7 | 0.00 | 0.00 | 0.00 | 93 | 1017.5 |
| 20260831134023 | 79 | 55 | 0.0 | 3.5 | 0.00 | 0.00 | 0.00 | 94 | 1017.5 |
| 20260831133526 | 78 | 14 | 0.9 | 1.7 | 0.00 | 0.00 | 0.00 | 94 | 1017.5 |
| 20260831133031 | 78 | 37 | 0.0 | 0.9 | 0.00 | 0.00 | 0.00 | 94 | 1017.5 |
| 20260831132532 | 78 | 63 | 0.0 | 1.7 | 0.00 | 0.00 | 0.00 | 94 | 1017.4 |
| 20260831132034 | 78 | 73 | 0.0 | 1.7 | 0.00 | 0.00 | 0.00 | 95 | 1017.3 |
| 20260831131539 | 77 | 73 | 0.0 | 0.0 | 0.00 | 0.00 | 0.00 | 95 | 1017.4 |
| 20260831131040 | 77 | 73 | 0.0 | 0.0 | 0.00 | 0.00 | 0.00 | 95 | 1017.4 |
| 20260831130542 | 77 | 67 | 0.0 | 0.0 | 0.00 | 0.00 | 0.00 | 96 | 1017.3 |
| 20260831130045 | 77 | 112 | 0.0 | 0.0 | 0.00 | 0.00 | 0.00 | 96 | 1017.3 |
| 20260831125545 | 77 | 15 | 0.0 | 0.0 | 0.00 | 0.00 | 0.00 | 96 | 1017.3 |
| 20260831125027 | 76 | 15 | 0.0 | 0.0 | 0.00 | 0.00 | 0.00 | 96 | 1017.3 |
| 20260831124550 | 76 | 71 | 0.0 | 0.0 | 0.00 | 0.00 | 0.00 | 97 | 1017.3 |
| 20260831124030 | 76 | 77 | 0.0 | 0.0 | 0.00 | 0.00 | 0.00 | 97 | 1017.1 |
| 20260831123536 | 76 | 77 | 0.0 | 0.0 | 0.00 | 0.00 | 0.00 | 97 | 1017.1 |
| 20260831123042 | 76 | 77 | 0.0 | 0.0 | 0.00 | 0.00 | 0.00 | 97 | 1017.0 |
| 20260831122523 | 76 | 78 | 0.0 | 0.0 | 0.00 | 0.00 | 0.00 | 97 | 1017.0 |
| 20260831122026 | 76 | 32 | 0.0 | 1.7 | 0.00 | 0.00 | 0.00 | 97 | 1016.9 |
| 20260831121531 | 76 | 32 | 0.0 | 1.7 | 0.00 | 0.00 | 0.00 | 97 | 1016.9 |
| 20260831121032 | 75 | 31 | 0.0 | 0.0 | 0.00 | 0.00 | 0.00 | 97 | 1016.8 |
| 20260831120534 | 75 | 31 | 0.0 | 0.0 | 0.00 | 0.00 | 0.00 | 97 | 1016.8 |
| 20260831120058 | 75 | 31 | 0.0 | 0.0 | 0.00 | 0.00 | 0.00 | 97 | 1016.7 |
| 20260831115539 | 75 | 31 | 0.0 | 0.0 | 0.00 | 0.00 | 0.00 | 97 | 1016.7 |
| 20260831115040 | 75 | 31 | 0.0 | 0.0 | 0.00 | 0.00 | 0.00 | 97 | 1016.6 |
| 20260831114545 | 75 | 31 | 0.0 | 0.0 | 0.00 | 0.00 | 0.00 | 97 | 1016.6 |
| 20260831114027 | 75 | 31 | 0.0 | 0.0 | 0.00 | 0.00 | 0.00 | 96 | 1016.5 |
| 20260831113533 | 75 | 31 | 0.0 | 0.0 | 0.00 | 0.00 | 0.00 | 96 | 1016.4 |
| 20260831113058 | 75 | 31 | 0.0 | 0.0 | 0.00 | 0.00 | 0.00 | 96 | 1016.4 |
| 20260831112539 | 75 | 31 | 0.0 | 0.0 | 0.00 | 0.00 | 0.00 | 96 | 1016.2 |
| 20260831112041 | 75 | 31 | 0.0 | 0.0 | 0.00 | 0.00 | 0.00 | 96 | 1016.1 |
| 20260831111525 | 75 | 31 | 0.0 | 0.0 | 0.00 | 0.00 | 0.00 | 96 | 1016.1 |
| 20260831111026 | 75 | 31 | 0.0 | 0.0 | 0.00 | 0.00 | 0.00 | 96 | 1016.0 |
| 20260831110529 | 75 | 31 | 0.0 | 0.0 | 0.00 | 0.00 | 0.00 | 96 | 1015.9 |
| 20260831110052 | 75 | 31 | 0.0 | 0.0 | 0.00 | 0.00 | 0.00 | 96 | 1015.9 |
| 20260831105534 | 75 | 31 | 0.0 | 0.0 | 0.00 | 0.00 | 0.00 | 96 | 1015.8 |
| 20260831105056 | 75 | 31 | 0.0 | 0.0 | 0.00 | 0.00 | 0.00 | 96 | 1015.8 |
| 20260831104540 | 75 | 31 | 0.0 | 0.0 | 0.00 | 0.00 | 0.00 | 96 | 1015.7 |
| 20260831104040 | 75 | 31 | 0.0 | 0.0 | 0.00 | 0.00 | 0.00 | 96 | 1015.7 |
| 20260831103523 | 75 | 31 | 0.0 | 0.0 | 0.00 | 0.00 | 0.00 | 96 | 1015.7 |
| 20260831103027 | 75 | 31 | 0.0 | 0.0 | 0.00 | 0.00 | 0.00 | 96 | 1015.6 |
| 20260831102533 | 75 | 31 | 0.0 | 0.0 | 0.00 | 0.00 | 0.00 | 96 | 1015.5 |
| 20260831102035 | 75 | 31 | 0.0 | 0.0 | 0.00 | 0.00 | 0.00 | 96 | 1015.4 |
| 20260831101540 | 76 | 31 | 0.0 | 0.0 | 0.00 | 0.00 | 0.00 | 96 | 1015.4 |
| 20260831101040 | 76 | 31 | 0.0 | 0.0 | 0.00 | 0.00 | 0.00 | 95 | 1015.5 |
| 20260831100543 | 76 | 31 | 0.0 | 0.0 | 0.00 | 0.00 | 0.00 | 95 | 1015.4 |
| 20260831100027 | 76 | 31 | 0.0 | 0.0 | 0.00 | 0.00 | 0.00 | 95 | 1015.4 |
| 20260831095529 | 76 | 31 | 0.0 | 0.0 | 0.00 | 0.00 | 0.00 | 95 | 1015.5 |
| 20260831095031 | 76 | 31 | 0.0 | 0.0 | 0.00 | 0.00 | 0.00 | 95 | 1015.6 |
| 20260831094531 | 76 | 31 | 0.0 | 0.0 | 0.00 | 0.00 | 0.00 | 95 | 1015.6 |
| 20260831094033 | 76 | 31 | 0.0 | 0.0 | 0.00 | 0.00 | 0.00 | 95 | 1015.6 |
| 20260831093535 | 76 | 31 | 0.0 | 0.0 | 0.00 | 0.00 | 0.00 | 95 | 1015.6 |
| 20260831093037 | 76 | 31 | 0.0 | 0.0 | 0.00 | 0.00 | 0.00 | 95 | 1015.6 |
| 20260831092544 | 76 | 31 | 0.0 | 0.0 | 0.00 | 0.00 | 0.00 | 95 | 1015.5 |
| 20260831092045 | 76 | 31 | 0.0 | 0.0 | 0.00 | 0.00 | 0.00 | 95 | 1015.4 |
| 20260831091529 | 76 | 31 | 0.0 | 0.0 | 0.00 | 0.00 | 0.00 | 95 | 1015.4 |
| 20260831091049 | 76 | 31 | 0.0 | 0.0 | 0.00 | 0.00 | 0.00 | 95 | 1015.5 |
| 20260831090532 | 76 | 31 | 0.0 | 0.0 | 0.00 | 0.00 | 0.00 | 95 | 1015.5 |
| 20260831090036 | 76 | 31 | 0.0 | 0.0 | 0.00 | 0.00 | 0.00 | 95 | 1015.5 |
| 20260831085558 | 76 | 31 | 0.0 | 0.0 | 0.00 | 0.00 | 0.00 | 94 | 1015.4 |
| 20260831085039 | 76 | 31 | 0.0 | 0.0 | 0.00 | 0.00 | 0.00 | 94 | 1015.4 |
| 20260831084544 | 76 | 31 | 0.0 | 0.0 | 0.00 | 0.00 | 0.00 | 94 | 1015.4 |
| 20260831084026 | 76 | 31 | 0.0 | 0.0 | 0.00 | 0.00 | 0.00 | 94 | 1015.4 |
| 20260831083529 | 76 | 31 | 0.0 | 0.0 | 0.00 | 0.00 | 0.00 | 94 | 1015.4 |
| 20260831083032 | 76 | 31 | 0.0 | 0.0 | 0.00 | 0.00 | 0.00 | 94 | 1015.4 |
| 20260831082534 | 76 | 31 | 0.0 | 0.0 | 0.00 | 0.00 | 0.00 | 94 | 1015.4 |
| 20260831082058 | 76 | 31 | 0.0 | 0.0 | 0.00 | 0.00 | 0.00 | 94 | 1015.4 |
| 20260831081524 | 76 | 31 | 0.0 | 0.0 | 0.00 | 0.00 | 0.00 | 94 | 1015.4 |
| 20260831081027 | 77 | 31 | 0.0 | 0.0 | 0.00 | 0.00 | 0.00 | 94 | 1015.5 |
| 20260831080549 | 77 | 31 | 0.0 | 0.0 | 0.00 | 0.00 | 0.00 | 94 | 1015.4 |
| 20260831080033 | 77 | 31 | 0.0 | 0.9 | 0.00 | 0.00 | 0.00 | 94 | 1015.4 |
| 20260831075535 | 77 | 35 | 0.0 | 0.0 | 0.00 | 0.00 | 0.00 | 94 | 1015.5 |
| 20260831075039 | 77 | 35 | 0.0 | 0.0 | 0.00 | 0.00 | 0.00 | 93 | 1015.4 |
| 20260831074540 | 77 | 35 | 0.0 | 0.0 | 0.00 | 0.00 | 0.00 | 93 | 1015.4 |
| 20260831074043 | 77 | 35 | 0.0 | 0.0 | 0.00 | 0.00 | 0.00 | 93 | 1015.5 |
| 20260831073523 | 77 | 35 | 0.0 | 0.0 | 0.00 | 0.00 | 0.00 | 93 | 1015.4 |
| 20260831073028 | 77 | 35 | 0.0 | 0.0 | 0.00 | 0.00 | 0.00 | 93 | 1015.5 |
| 20260831072530 | 77 | 35 | 0.0 | 0.0 | 0.00 | 0.00 | 0.00 | 93 | 1015.4 |
| 20260831072052 | 77 | 35 | 0.0 | 0.0 | 0.00 | 0.00 | 0.00 | 92 | 1015.4 |
| 20260831071537 | 77 | 35 | 0.0 | 0.0 | 0.00 | 0.00 | 0.00 | 92 | 1015.5 |
| 20260831071058 | 77 | 35 | 0.0 | 0.0 | 0.00 | 0.00 | 0.00 | 92 | 1015.4 |
| 20260831070600 | 77 | 35 | 0.0 | 0.0 | 0.00 | 0.00 | 0.00 | 92 | 1015.4 |
| 20260831070027 | 77 | 35 | 0.0 | 0.0 | 0.00 | 0.00 | 0.00 | 92 | 1015.4 |
| 20260831065529 | 77 | 35 | 0.0 | 0.0 | 0.00 | 0.00 | 0.00 | 92 | 1015.4 |
| 20260831065032 | 78 | 35 | 0.0 | 0.0 | 0.00 | 0.00 | 0.00 | 92 | 1015.4 |
| 20260831064536 | 78 | 53 | 0.0 | 0.0 | 0.00 | 0.00 | 0.00 | 92 | 1015.4 |
| 20260831064037 | 78 | 53 | 0.0 | 0.0 | 0.00 | 0.00 | 0.00 | 92 | 1015.5 |
| 20260831063540 | 78 | 53 | 0.0 | 0.0 | 0.00 | 0.00 | 0.00 | 92 | 1015.5 |
| 20260831063044 | 78 | 53 | 0.0 | 0.0 | 0.00 | 0.00 | 0.00 | 92 | 1015.5 |
| 20260831062525 | 78 | 65 | 0.0 | 0.0 | 0.00 | 0.00 | 0.00 | 92 | 1015.5 |
| 20260831062028 | 78 | 65 | 0.0 | 0.0 | 0.00 | 0.00 | 0.00 | 92 | 1015.6 |
| 20260831061531 | 78 | 103 | 0.0 | 4.3 | 0.00 | 0.00 | 0.00 | 91 | 1015.6 |
| 20260831061032 | 78 | 49 | 0.0 | 4.3 | 0.00 | 0.00 | 0.00 | 91 | 1015.6 |
| 20260831060535 | 78 | 56 | 0.0 | 0.0 | 0.00 | 0.00 | 0.00 | 91 | 1015.6 |
| 20260831060040 | 78 | 56 | 0.0 | 0.0 | 0.00 | 0.00 | 0.00 | 91 | 1015.6 |
| 20260831055544 | 78 | 103 | 0.0 | 0.0 | 0.00 | 0.00 | 0.00 | 91 | 1015.5 |
| 20260831055026 | 78 | 103 | 0.0 | 3.5 | 0.00 | 0.00 | 0.00 | 91 | 1015.6 |